www.pogodaiklimat.ru

Погода и климат >> Архив погоды >> Россия >> Якутия >> Оймякон


АРХИВ ПОГОДЫ в Оймяконе

Время (UTC), дата Ветер
(напр.,м/с)
 
Видим.   Явления Облачность Т
(С)
Тd
(С)
f
(%)
Тe
(С)
Тes
(С)
Комфортность P
(гПа)
Po
(гПа)
Тmin
(С)
Tmax
(С)
R
(мм)
R24
(мм)
S
(см)
21 18.04 штиль 0 50 км 1/1 1000 м
[Sc]
-16.1 -17.4 90 -16 -14 по сезону 1025.7 930.2 -23.7 27
00 19.04 С 2 50 км 3/1 1000 м
[Sc Ci fib]
-6.4 -11.9 65 -10 -5 по сезону 1022.2 930.4
03 19.04 Ю 2 50 км 8/3 1000 м
[Cu Sc Ci fib]
-0.9 -10.1 50 -4 +1 по сезону 1019.6 929.8
06 19.04 Ю 4 50 км 8/3 1000 м
[Sc diur, vesp Ci fib]
-0.5 -9.4 51 -5 -3 по сезону 1018.9 929.3
09 19.04 Ю 3 50 км 10/0
[Ac trans Ci fib]
-2.3 -10.0 55 -7 -7 по сезону 1019.9 929.5 -0.1
12 19.04 ЮВ 3 50 км 8/0
[Ci fib]
-7.2 -14.1 58 -13 -13 по сезону 1022.0 929.9
15 19.04 СВ 2 50 км 8/0
[Ci fib]
-11.7 -14.4 80 -16 -16 по сезону 1023.8 930.0
18 19.04 Ю 2 50 км 6/0
[Ci fib]
-16.4 -18.3 85 -22 -22 по сезону 1026.3 930.5
21 19.04 штиль 0 50 км 8/0
[Ci fib]
-16.3 -17.6 90 -16 -15 по сезону 1026.6 931.0 -20.8 25
00 20.04 ЮЗ 1 50 км 8/0
[Ci fib]
-8.9 -13.3 70 -11 -5 по сезону 1022.8 930.1
03 20.04 ЮВ 1 50 км 3/0
[Ci fib]
-1.2 -10.1 51 -3 +7 по сезону 1018.6 928.7
06 20.04 Ю 2 50 км 1/0
[Ci fib]
+0.1 -10.3 45 -3 +2 по сезону 1017.1 927.8
09 20.04 В 1 50 км ясно -0.3 -9.5 50 -2 -1 тепло 1017.0 927.5 +1.6
12 20.04 З 2 50 км ясно -11.6 -14.4 80 -16 -16 по сезону 1022.0 928.4
15 20.04 штиль 0 50 км ясно -17.2 -18.4 90 -17 -17 по сезону 1024.3 928.5
18 20.04 штиль 0 50 км ясно -19.9 -20.5 95 -20 -20 по сезону 1015.8 929.0
21 20.04 штиль 0 50 км 8/0
[Ci fib]
-15.4 -16.7 90 -15 -14 по сезону 1024.8 929.5 -21.9 25
00 21.04 штиль 0 50 км 9/0
[Ci fib]
-6.6 -12.2 64 -7 0 по сезону 1021.1 929.3
03 21.04 В 2 50 км 10/0
[Cs]
+1.0 -10.6 42 -2 +6 тепло 1017.5 928.5
06 21.04 В 2 50 км 10/0
[Cs]
+2.8 -9.3 41 +1 +5 тепло 1016.5 928.0
09 21.04 С 2 50 км 10/0
[Ci]
+1.8 -9.0 45 -1 -0 тепло 1017.1 928.3 +3.3
12 21.04 ЮЗ 2 50 км 8/0
[Ci fib]
-6.3 -10.8 70 -10 -10 по сезону 1020.3 928.6
15 21.04 штиль 0 50 км 8/0
[Ci fib]
-9.7 -11.4 87 -10 -10 тепло 1022.3 929.4
18 21.04 штиль 0 50 км 5/0
[Ci fib]
-14.4 -15.0 95 -14 -14 по сезону 1024.9 930.2
21 21.04 ЮЗ 1 50 км 6/0
[Ci fib]
-12.7 -14.0 90 -15 -13 по сезону 1025.5 931.3 -17.1 21
00 22.04 ЮЗ 2 50 км 4/0
[Ci fib]
-1.8 -11.6 47 -5 +2 тепло 1022.1 931.7
03 22.04 СЗ 1 50 км 1/0
[Ci fib]
+2.8 -8.1 44 +2 +13 опасность
простуды
1020.4 931.6
06 22.04 З 1 50 км 1/0
[Ci fib]
+6.4 -9.8 30 +6 +12 тепло 1018.7 931.3
09 22.04 штиль 0 50 км 1/0
[Ci fib]
+5.1 -5.9 45 +5 +5 тепло 1019.5 931.6 +6.6
12 22.04 З 1 50 км ясно -4.9 -9.4 71 -7 -7 тепло 1023.8 932.4
15 22.04 ЮЗ 1 50 км ясно -9.6 -11.7 85 -12 -12 по сезону 1026.4 933.1
18 22.04 штиль 0 50 км ясно -13.1 -13.7 95 -13 -13 по сезону 1028.6 933.9
21 22.04 Ю 1 50 км ясно -10.6 -11.9 90 -13 -11 по сезону 1029.0 935.1 -15.7 16
00 23.04 ЮЗ 1 50 км ясно -0.8 -7.7 59 -2 +6 тепло 1025.9 935.5
03 23.04 С 1 50 км ясно +2.9 -5.9 52 +2 +13 опасность
простуды
1023.5 934.6
06 23.04 ЮВ 2 50 км 1/0
[Ci fib]
+5.8 -4.8 46 +4 +9 тепло 1022.2 934.3
09 23.04 В 2 50 км 1/0
[Ci fib]
+5.7 -5.3 45 +4 +4 тепло 1022.4 934.4 +7.1
12 23.04 штиль 0 50 км 1/0
[Ci fib]
-1.5 -6.7 68 -2 -2 тепло 1026.3 935.7
15 23.04 ЮЗ 1 50 км ясно -9.5 -12.1 81 -12 -12 по сезону 1029.9 936.3
18 23.04 Ю 1 50 км 4/0
[Ci fib]
-14.5 -15.1 95 -17 -17 по сезону 1032.7 937.1
21 23.04 Ю 2 50 км 6/0
[Ci fib]
-9.0 -11.9 79 -13 -12 по сезону 1031.4 937.8 -14.7 11
00 24.04 Ю 2 50 км 9/0
[Ci fib]
+0.1 -6.7 60 -3 +3 тепло 1027.0 936.8
03 24.04 Ю 1 50 км 3/0
[Ci fib]
+4.2 -5.6 49 +4 +14 опасность
простуды
1023.9 935.3
06 24.04 Ю 1 50 км 3/0
[Ci fib]
+6.2 -4.2 47 +6 +11 тепло 1022.1 934.2
09 24.04 ЮВ 1 50 км 1/0
[Ci fib]
+5.1 -5.9 45 +5 +5 тепло 1020.9 932.8 +6.5
12 24.04 З 2 50 км 1/0
[Ci fib]
-4.2 -9.2 68 -8 -8 по сезону 1023.9 932.6
15 24.04 Ю 1 50 км 1/0
[Ci fib]
-8.8 -10.3 89 -11 -11 по сезону 1025.1 932.2
18 24.04 З 1 50 км 3/0
[Ac trans Ci fib]
-13.2 -13.8 95 -16 -16 по сезону 1026.7 932.2
21 24.04 Ю 2 50 км 3/0
[Ac trans Ci fib]
-8.2 -10.9 81 -13 -11 по сезону 1024.6 931.9 -13.5 5
00 25.04 Ю 1 50 км 5/0
[Ci fib]
+0.4 -7.5 55 -1 +7 тепло 1020.3 930.7
03 25.04 СВ 2 50 км 5/3 1000 м
[Cu hum Ci fib]
+4.9 -4.2 52 +3 +9 тепло 1016.4 928.7
06 25.04 СЗ 2 50 км 9/5 1000 м
[Cu med, cong]
+6.1 -4.3 47 +4 +6 тепло 1014.9 927.6
09 25.04 ЮВ 1 50 км 5/5 1000 м
[Sc diur, vesp]
+5.3 -4.3 50 +5 +5 тепло 1014.1 926.7 +7.2
12 25.04 З 2 50 км 1/1 1000 м
[Sc]
-2.5 -6.9 72 -6 -6 по сезону 1016.4 926.4
15 25.04 штиль 0 50 км 1/1 1000 м
[Sc]
-6.6 -9.0 83 -7 -7 тепло 1017.6 926.1
18 25.04 штиль 0 50 км 9/9 1000 м
[Sc]
-5.4 -8.3 80 -6 -6 тепло 1016.5 925.5

 

Местоположение метеостанции Оймякон (Якутия, Россия): широта 63.25 долгота 143.10 высота над уровнем моря 740 м.

В архиве по умолчанию представлена погода в Оймяконе за последнюю неделю. Архивные данные за месяц целиком и за предыдущие месяцы, начиная с января 2011 года, Вы можете получить, выбрав интересующий диапазон дат из раскрывающегося списка и нажав кнопку "Ввод!".

Внимание! Время в таблицах - всемирное. Для получения местного времени необходимо прибавить поправку, которая в Оймяконе равна 10 ч.

Смотрите также архив погоды в соседних городах и на ближайших метеорологических станциях:

Погода в Агаякане (Якутия, Россия) (71 км)
Погода в Юртах (Якутия, Россия) (110 км)
Погода в Делянкире (Якутия, Россия) (140 км)
Погода в Усть-Нере (Якутия, Россия) (142 км)
Погода в Восточной (Якутия, Россия) (175 км)
Погода в Сусумане (Магаданская область, Россия) (258 км)
Погода в Колымской (Магаданская область, Россия) (278 км)
Погода в Уеге (Хабаровский край, Россия) (282 км)
Погода в Теплом Ключе (Якутия, Россия) (322 км)
Погода в Ягодной (Магаданская область, Россия) (340 км)

Пояснения к столбцам:

Ветер - указаны скорость ветра в м/с - средняя за 10 мин, порывы в срок и между сроками (в фигурных скобках) и направление, откуда дует ветер: С - северный, СВ - северо-восточный, В - восточный, ЮВ - юго-восточный, Ю - южный, ЮЗ - юго-западный, З - западный, СЗ - северо-западный.
Видимость - горизонтальная дальность видимости в метрах или километрах. При видимости от 1 до 10 км при отсутствии осадков обычно наблюдается дымка, при ухудшении видимости до 1 км и менее - туман. В сухую погоду видимость может ухудшаться дымом, пылью или мглою.
Явления - указаны атмосферные явления, наблюдавшиеся в срок или в последний час перед сроком; фигурными скобками обозначены явления, наблюдавшиеся между сроками (за 1-3 часа до срока); квадратными скобками обозначены град или гололедные отложения с указанием их диаметра в мм.
Облачность - указаны через наклонную черту общая и нижняя облачность в баллах и высота нижней границы облаков в метрах; квадратными скобками обозначены формы облаков: Ci - перистые, Cs - перисто-слоистые, Cc - перисто-кучевые, Ac - высококучевые, As - высокослоистые, Sc - слоисто-кучевые, Ns - слоисто-дождевые, Cu - кучевые, Cb - кучево-дождевые. Подробнее классификацию облаков см. в Атласе облаков (PDF).
T - Температура воздуха - температура, измеренная на высоте 2 м над землей.
Td - Температура точки росы - температура, при понижении до которой содержащийся в воздухе водяной пар достигнет насыщения.
f - Относительная влажность воздуха - влажноcть воздуха, измеренная на высоте 2 м над землей.
Te - Эффективная температура - температура, которую ощущает одетый по сезону человек в тени. Характеристика душности погоды. При расчете учитывается влияние влажности воздуха и скорости ветра на теплоощущения человека.
Tes - Эффективная температура на солнце - температура, которую ощущает человек, с поправкой на солнечный нагрев. Характеристика знойности погоды. Зависит от высоты солнца над горизонтом, облачности и скорости ветра. Ночью, в пасмурную погоду, а также при ветре 12 м/с и более поправка равна нулю.
P - Атмосферное давление - приведенное к уровню моря атмосферное давление.
Po - Атмосферное давление - измеренное на уровне метеостанции атмосферное давление.
Tmin - Минимальная температура - минимум температуры воздуха на высоте 2 м над землей.
Tmax - Максимальная температура - максимум температуры воздуха на высоте 2 м над землей.
R - Количество осадков - Количество выпавших осадков за период времени, мм. При наведении курсора мыши на число - период времени, за который выпало указанное количество осадков.
R24 - Количество осадков - Количество выпавших осадков за 24 часа, мм.
S - Снежный покров - Высота снежного покрова, см. При наведении курсора мыши на число - состояние снежного покрова и степень покрытия местности в баллах.